date,time,SUV Intensity [MED/Hr],UV Index,Daily total [MED],Since Last [MED]
26/04/2023,00:01:03,-0.001,0.0,0.0,0.0
26/04/2023,00:02:03,0.000,0.0,0.0,0.0
26/04/2023,00:03:03,0.000,0.0,0.0,0.0
26/04/2023,00:04:03,0.000,0.0,0.0,0.0
26/04/2023,00:05:03,0.000,0.0,0.0,0.0
26/04/2023,00:06:02,0.000,0.0,0.0,0.0
26/04/2023,00:07:03,0.000,0.0,0.0,0.0
26/04/2023,00:08:03,0.000,0.0,0.0,0.0
26/04/2023,00:09:03,0.000,0.0,0.0,0.0
26/04/2023,00:10:03,0.000,0.0,0.0,0.0
26/04/2023,00:11:02,0.000,0.0,0.0,0.0
26/04/2023,00:12:03,0.000,0.0,0.0,0.0
26/04/2023,00:13:03,0.000,0.0,0.0,0.0
26/04/2023,00:14:03,0.000,0.0,0.0,0.0
26/04/2023,00:15:03,0.000,0.0,0.0,0.0
26/04/2023,00:16:03,0.000,0.0,0.0,0.0
26/04/2023,00:17:03,0.000,0.0,0.0,0.0
26/04/2023,00:18:02,0.000,0.0,0.0,0.0
26/04/2023,00:19:03,0.000,0.0,0.0,0.0
26/04/2023,00:20:03,0.000,0.0,0.0,0.0
26/04/2023,00:21:03,0.000,0.0,0.0,0.0
26/04/2023,00:22:03,0.000,0.0,0.0,0.0
26/04/2023,00:23:03,0.000,0.0,0.0,0.0
26/04/2023,00:24:02,0.000,0.0,0.0,0.0
26/04/2023,00:25:03,0.000,0.0,0.0,0.0
26/04/2023,00:26:03,0.000,0.0,0.0,0.0
26/04/2023,00:27:02,0.000,0.0,0.0,0.0
26/04/2023,00:28:02,0.000,0.0,0.0,0.0
26/04/2023,00:29:03,0.000,0.0,0.0,0.0
26/04/2023,00:30:03,0.000,0.0,0.0,0.0
26/04/2023,00:31:03,0.000,0.0,0.0,0.0
26/04/2023,00:32:03,0.000,0.0,0.0,0.0
26/04/2023,00:33:03,0.000,0.0,0.0,0.0
26/04/2023,00:34:03,0.000,0.0,0.0,0.0
26/04/2023,00:35:02,0.000,0.0,0.0,0.0
26/04/2023,00:36:02,0.000,0.0,0.0,0.0
26/04/2023,00:37:02,0.000,0.0,0.0,0.0
26/04/2023,00:38:03,-0.000,0.0,0.0,0.0
26/04/2023,00:39:03,0.000,0.0,0.0,0.0
26/04/2023,00:40:03,0.000,0.0,0.0,0.0
26/04/2023,00:41:04,0.000,0.0,0.0,0.0
26/04/2023,00:42:04,0.000,0.0,0.0,0.0
26/04/2023,00:43:03,0.000,0.0,0.0,0.0
26/04/2023,00:44:02,0.000,0.0,0.0,0.0
26/04/2023,00:45:03,0.000,0.0,0.0,0.0
26/04/2023,00:46:03,0.000,0.0,0.0,0.0
26/04/2023,00:47:03,0.000,0.0,0.0,0.0
26/04/2023,00:48:03,0.000,0.0,0.0,0.0
26/04/2023,00:49:03,0.000,0.0,0.0,0.0
26/04/2023,00:50:03,0.000,0.0,0.0,0.0
26/04/2023,00:51:03,0.000,0.0,0.0,0.0
26/04/2023,00:52:03,0.000,0.0,0.0,0.0
26/04/2023,00:53:03,0.000,0.0,0.0,0.0
26/04/2023,00:54:03,0.000,0.0,0.0,0.0
26/04/2023,00:55:03,0.000,0.0,0.0,0.0
26/04/2023,00:56:03,0.000,0.0,0.0,0.0
26/04/2023,00:57:04,0.000,0.0,0.0,0.0
26/04/2023,00:58:04,0.000,0.0,0.0,0.0
26/04/2023,00:59:03,0.000,0.0,0.0,0.0
26/04/2023,01:00:03,0.000,0.0,0.0,0.0
26/04/2023,01:01:03,0.000,0.0,0.0,0.0
26/04/2023,01:02:03,0.000,0.0,0.0,0.0
26/04/2023,01:03:03,0.000,0.0,0.0,0.0
26/04/2023,01:04:03,0.000,0.0,0.0,0.0
26/04/2023,01:05:03,0.000,0.0,0.0,0.0
26/04/2023,01:06:03,0.000,0.0,0.0,0.0
26/04/2023,01:07:03,0.000,0.0,0.0,0.0
26/04/2023,01:08:02,0.000,0.0,0.0,0.0
26/04/2023,01:09:03,0.000,0.0,0.0,0.0
26/04/2023,01:10:02,0.000,0.0,0.0,0.0
26/04/2023,01:11:03,0.000,0.0,0.0,0.0
26/04/2023,01:12:03,0.000,0.0,0.0,0.0
26/04/2023,01:13:03,0.000,0.0,0.0,0.0
26/04/2023,01:14:03,0.000,0.0,0.0,0.0
26/04/2023,01:15:03,0.000,0.0,0.0,0.0
26/04/2023,01:16:03,0.000,0.0,0.0,0.0
26/04/2023,01:17:03,0.000,0.0,0.0,0.0
26/04/2023,01:18:02,0.000,0.0,0.0,0.0
26/04/2023,01:19:02,0.000,0.0,0.0,0.0
26/04/2023,01:20:03,0.000,0.0,0.0,0.0
26/04/2023,01:21:03,0.000,0.0,0.0,0.0
26/04/2023,01:22:03,0.000,0.0,0.0,0.0
26/04/2023,01:23:03,0.000,0.0,0.0,0.0
26/04/2023,01:24:03,0.000,0.0,0.0,0.0
26/04/2023,01:25:03,0.000,0.0,0.0,0.0
26/04/2023,01:26:04,0.000,0.0,0.0,0.0
26/04/2023,01:27:04,0.000,0.0,0.0,0.0
26/04/2023,01:28:03,0.000,0.0,0.0,0.0
26/04/2023,01:29:03,0.000,0.0,0.0,0.0
26/04/2023,01:30:03,0.000,0.0,0.0,0.0
26/04/2023,01:31:03,0.000,0.0,0.0,0.0
26/04/2023,01:32:03,0.000,0.0,0.0,0.0
26/04/2023,01:33:03,0.000,0.0,0.0,0.0
26/04/2023,01:34:03,0.000,0.0,0.0,0.0
26/04/2023,01:35:03,0.000,0.0,0.0,0.0
26/04/2023,01:36:03,0.000,0.0,0.0,0.0
26/04/2023,01:37:03,0.000,0.0,0.0,0.0
26/04/2023,01:38:03,0.000,0.0,0.0,0.0
26/04/2023,01:39:03,0.000,0.0,0.0,0.0
26/04/2023,01:40:03,0.000,0.0,0.0,0.0
26/04/2023,01:41:03,0.000,0.0,0.0,0.0
26/04/2023,01:42:03,0.000,0.0,0.0,0.0
26/04/2023,01:43:03,0.000,0.0,0.0,0.0
26/04/2023,01:44:03,0.000,0.0,0.0,0.0
26/04/2023,01:45:03,0.000,0.0,0.0,0.0
26/04/2023,01:46:03,0.000,0.0,0.0,0.0
26/04/2023,01:47:03,0.000,0.0,0.0,0.0
26/04/2023,01:48:03,0.000,0.0,0.0,0.0
26/04/2023,01:49:03,0.000,0.0,0.0,0.0
26/04/2023,01:50:07,0.000,0.0,0.0,0.0
26/04/2023,01:51:04,0.000,0.0,0.0,0.0
26/04/2023,01:52:03,0.000,0.0,0.0,0.0
26/04/2023,01:53:03,0.000,0.0,0.0,0.0
26/04/2023,01:54:03,0.000,0.0,0.0,0.0
26/04/2023,01:55:03,0.000,0.0,0.0,0.0
26/04/2023,01:56:03,0.000,0.0,0.0,0.0
26/04/2023,01:57:03,0.000,0.0,0.0,0.0
26/04/2023,01:58:03,0.000,0.0,0.0,0.0
26/04/2023,01:59:03,0.000,0.0,0.0,0.0
26/04/2023,02:00:03,0.000,0.0,0.0,0.0
26/04/2023,02:01:03,0.000,0.0,0.0,0.0
26/04/2023,02:02:03,0.000,0.0,0.0,0.0
26/04/2023,02:03:03,0.000,0.0,0.0,0.0
26/04/2023,02:04:03,0.000,0.0,0.0,0.0
26/04/2023,02:05:03,0.000,0.0,0.0,0.0
26/04/2023,02:06:03,0.000,0.0,0.0,0.0
26/04/2023,02:07:03,0.000,0.0,0.0,0.0
26/04/2023,02:08:03,0.000,0.0,0.0,0.0
26/04/2023,02:09:03,-0.000,0.0,0.0,0.0
26/04/2023,02:10:03,0.000,0.0,0.0,0.0
26/04/2023,02:11:03,0.000,0.0,0.0,0.0
26/04/2023,02:12:03,0.000,0.0,0.0,0.0
26/04/2023,02:13:03,0.000,0.0,0.0,0.0
26/04/2023,02:14:03,0.000,0.0,0.0,0.0
26/04/2023,02:15:03,0.000,0.0,0.0,0.0
26/04/2023,02:16:03,0.000,0.0,0.0,0.0
26/04/2023,02:17:03,0.000,0.0,0.0,0.0
26/04/2023,02:18:03,0.000,0.0,0.0,0.0
26/04/2023,02:19:03,0.000,0.0,0.0,0.0
26/04/2023,02:20:03,0.000,0.0,0.0,0.0
26/04/2023,02:21:03,0.000,0.0,0.0,0.0
26/04/2023,02:22:03,0.000,0.0,0.0,0.0
26/04/2023,02:23:03,0.000,0.0,0.0,0.0
26/04/2023,02:24:03,0.000,0.0,0.0,0.0
26/04/2023,02:25:03,0.000,0.0,0.0,0.0
26/04/2023,02:26:03,0.000,0.0,0.0,0.0
26/04/2023,02:27:03,0.000,0.0,0.0,0.0
26/04/2023,02:28:03,0.000,0.0,0.0,0.0
26/04/2023,02:29:05,0.000,0.0,0.0,0.0
26/04/2023,02:30:03,0.000,0.0,0.0,0.0
26/04/2023,02:31:03,0.000,0.0,0.0,0.0
26/04/2023,02:32:03,0.000,0.0,0.0,0.0
26/04/2023,02:33:03,0.000,0.0,0.0,0.0
26/04/2023,02:34:03,0.000,0.0,0.0,0.0
26/04/2023,02:35:03,-0.000,0.0,0.0,0.0
26/04/2023,02:36:04,0.000,0.0,0.0,0.0
26/04/2023,02:37:03,0.000,0.0,0.0,0.0
26/04/2023,02:38:03,0.000,0.0,0.0,0.0
26/04/2023,02:39:04,0.000,0.0,0.0,0.0
26/04/2023,02:40:04,0.000,0.0,0.0,0.0
26/04/2023,02:41:03,0.000,0.0,0.0,0.0
26/04/2023,02:42:04,0.000,0.0,0.0,0.0
26/04/2023,02:43:03,0.000,0.0,0.0,0.0
26/04/2023,02:44:03,0.000,0.0,0.0,0.0
26/04/2023,02:45:03,0.000,0.0,0.0,0.0
26/04/2023,02:46:03,0.000,0.0,0.0,0.0
26/04/2023,02:47:03,0.000,0.0,0.0,0.0
26/04/2023,02:48:03,0.000,0.0,0.0,0.0
26/04/2023,02:49:03,0.000,0.0,0.0,0.0
26/04/2023,02:50:03,0.000,0.0,0.0,0.0
26/04/2023,02:51:03,0.000,0.0,0.0,0.0
26/04/2023,02:52:03,0.000,0.0,0.0,0.0
26/04/2023,02:53:03,0.000,0.0,0.0,0.0
26/04/2023,02:54:03,0.000,0.0,0.0,0.0
26/04/2023,02:55:03,0.000,0.0,0.0,0.0
26/04/2023,02:56:03,0.000,0.0,0.0,0.0
26/04/2023,02:57:03,0.000,0.0,0.0,0.0
26/04/2023,02:58:03,0.000,0.0,0.0,0.0
26/04/2023,02:59:03,0.000,0.0,0.0,0.0
26/04/2023,03:00:04,0.000,0.0,0.0,0.0
26/04/2023,03:01:04,0.000,0.0,0.0,0.0
26/04/2023,03:02:03,0.000,0.0,0.0,0.0
26/04/2023,03:03:03,0.000,0.0,0.0,0.0
26/04/2023,03:04:03,0.000,0.0,0.0,0.0
26/04/2023,03:05:03,0.000,0.0,0.0,0.0
26/04/2023,03:06:03,0.000,0.0,0.0,0.0
26/04/2023,03:07:03,0.000,0.0,0.0,0.0
26/04/2023,03:08:03,0.000,0.0,0.0,0.0
26/04/2023,03:09:03,0.000,0.0,0.0,0.0
26/04/2023,03:10:03,0.000,0.0,0.0,0.0
26/04/2023,03:11:04,0.000,0.0,0.0,0.0
26/04/2023,03:12:04,0.000,0.0,0.0,0.0
26/04/2023,03:13:03,0.000,0.0,0.0,0.0
26/04/2023,03:14:03,0.000,0.0,0.0,0.0
26/04/2023,03:15:03,0.000,0.0,0.0,0.0
26/04/2023,03:16:03,-0.000,0.0,0.0,0.0
26/04/2023,03:17:03,0.000,0.0,0.0,0.0
26/04/2023,03:18:03,0.000,0.0,0.0,0.0
26/04/2023,03:19:03,0.000,0.0,0.0,0.0
26/04/2023,03:20:03,0.000,0.0,0.0,0.0
26/04/2023,03:21:03,0.000,0.0,0.0,0.0
26/04/2023,03:22:03,0.000,0.0,0.0,0.0
26/04/2023,03:23:03,0.000,0.0,0.0,0.0
26/04/2023,03:24:03,0.000,0.0,0.0,0.0
26/04/2023,03:25:03,0.000,0.0,0.0,0.0
26/04/2023,03:26:03,0.000,0.0,0.0,0.0
26/04/2023,03:27:03,0.000,0.0,0.0,0.0
26/04/2023,03:28:03,0.000,0.0,0.0,0.0
26/04/2023,03:29:04,0.000,0.0,0.0,0.0
26/04/2023,03:30:03,0.000,0.0,0.0,0.0
26/04/2023,03:31:03,0.000,0.0,0.0,0.0
26/04/2023,03:32:03,0.000,0.0,0.0,0.0
26/04/2023,03:33:03,0.000,0.0,0.0,0.0
26/04/2023,03:34:03,0.000,0.0,0.0,0.0
26/04/2023,03:35:03,0.000,0.0,0.0,0.0
26/04/2023,03:36:03,0.000,0.0,0.0,0.0
26/04/2023,03:37:03,0.000,0.0,0.0,0.0
26/04/2023,03:38:04,0.000,0.0,0.0,0.0
26/04/2023,03:39:03,0.000,0.0,0.0,0.0
26/04/2023,03:40:03,0.000,0.0,0.0,0.0
26/04/2023,03:41:03,0.000,0.0,0.0,0.0
26/04/2023,03:42:03,0.000,0.0,0.0,0.0
26/04/2023,03:43:03,0.000,0.0,0.0,0.0
26/04/2023,03:44:03,0.000,0.0,0.0,0.0
26/04/2023,03:45:03,0.000,0.0,0.0,0.0
26/04/2023,03:46:03,0.000,0.0,0.0,0.0
26/04/2023,03:47:03,0.000,0.0,0.0,0.0
26/04/2023,03:48:03,0.000,0.0,0.0,0.0
26/04/2023,03:49:03,0.000,0.0,0.0,0.0
26/04/2023,03:50:04,0.000,0.0,0.0,0.0
26/04/2023,03:51:03,0.000,0.0,0.0,0.0
26/04/2023,03:52:03,0.000,0.0,0.0,0.0
26/04/2023,03:53:03,0.000,0.0,0.0,0.0
26/04/2023,03:54:04,0.000,0.0,0.0,0.0
26/04/2023,03:55:03,0.000,0.0,0.0,0.0
26/04/2023,03:56:03,0.000,0.0,0.0,0.0
26/04/2023,03:57:03,0.000,0.0,0.0,0.0
26/04/2023,03:58:03,0.000,0.0,0.0,0.0
26/04/2023,03:59:03,0.000,0.0,0.0,0.0
26/04/2023,04:00:03,0.000,0.0,0.0,0.0
26/04/2023,04:01:03,0.000,0.0,0.0,0.0
26/04/2023,04:02:03,0.000,0.0,0.0,0.0
26/04/2023,04:03:03,0.000,0.0,0.0,0.0
26/04/2023,04:04:04,0.000,0.0,0.0,0.0
26/04/2023,04:05:04,0.000,0.0,0.0,0.0
26/04/2023,04:06:03,0.000,0.0,0.0,0.0
26/04/2023,04:07:03,0.000,0.0,0.0,0.0
26/04/2023,04:08:03,0.001,0.0,0.0,0.0
26/04/2023,04:09:03,0.000,0.0,0.0,0.0
26/04/2023,04:10:03,0.000,0.0,0.0,0.0
26/04/2023,04:11:03,0.000,0.0,0.0,0.0
26/04/2023,04:12:03,0.000,0.0,0.0,0.0
26/04/2023,04:13:03,0.000,0.0,0.0,0.0
26/04/2023,04:14:03,0.000,0.0,0.0,0.0
26/04/2023,04:15:03,0.000,0.0,0.0,0.0
26/04/2023,04:16:03,0.000,0.0,0.0,0.0
26/04/2023,04:17:03,0.000,0.0,0.0,0.0
26/04/2023,04:18:03,0.000,0.0,0.0,0.0
26/04/2023,04:19:03,0.000,0.0,0.0,0.0
26/04/2023,04:20:03,0.000,0.0,0.0,0.0
26/04/2023,04:21:03,0.000,0.0,0.0,0.0
26/04/2023,04:22:03,0.000,0.0,0.0,0.0
26/04/2023,04:23:03,0.000,0.0,0.0,0.0
26/04/2023,04:24:03,0.000,0.0,0.0,0.0
26/04/2023,04:25:04,0.000,0.0,0.0,0.0
26/04/2023,04:26:03,0.000,0.0,0.0,0.0
26/04/2023,04:27:03,0.001,0.0,0.0,0.0
26/04/2023,04:28:03,-0.000,0.0,0.0,0.0
26/04/2023,04:29:03,0.001,0.0,0.0,0.0
26/04/2023,04:30:04,0.001,0.0,0.0,0.0
26/04/2023,04:31:04,0.001,0.0,0.0,0.0
26/04/2023,04:32:03,0.001,0.0,0.0,0.0
26/04/2023,04:33:03,0.001,0.0,0.0,0.0
26/04/2023,04:34:03,0.001,0.0,0.0,0.0
26/04/2023,04:35:03,0.000,0.0,0.0,0.0
26/04/2023,04:36:03,0.000,0.0,0.0,0.0
26/04/2023,04:37:04,0.002,0.0,0.0,0.0
26/04/2023,04:38:03,0.000,0.0,0.0,0.0
26/04/2023,04:39:03,0.001,0.0,0.0,0.0
26/04/2023,04:40:03,0.001,0.0,0.0,0.0
26/04/2023,04:41:04,0.000,0.0,0.0,0.0
26/04/2023,04:42:03,0.001,0.0,0.0,0.0
26/04/2023,04:43:03,0.001,0.0,0.0,0.0
26/04/2023,04:44:03,0.001,0.0,0.0,0.0
26/04/2023,04:45:03,0.001,0.0,0.0,0.0
26/04/2023,04:46:03,0.002,0.0,0.0,0.0
26/04/2023,04:47:04,0.002,0.0,0.0,0.0
26/04/2023,04:48:04,0.003,0.0,0.0,0.0
26/04/2023,04:49:04,0.003,0.0,0.0,0.0
26/04/2023,04:50:03,0.002,0.0,0.0,0.0
26/04/2023,04:51:03,0.002,0.0,0.0,0.0
26/04/2023,04:52:03,0.002,0.0,0.0,0.0
26/04/2023,04:53:04,0.003,0.0,0.0,0.0
26/04/2023,04:54:03,0.002,0.0,0.0,0.0
26/04/2023,04:55:03,0.003,0.0,0.0,0.0
26/04/2023,04:56:03,0.003,0.0,0.0,0.0
26/04/2023,04:57:03,0.004,0.0,0.0,0.0
26/04/2023,04:58:03,0.002,0.0,0.0,0.0
26/04/2023,04:59:03,0.003,0.0,0.0,0.0
26/04/2023,05:00:03,0.004,0.0,0.0,0.0
26/04/2023,05:01:04,0.004,0.0,0.0,0.0
26/04/2023,05:02:04,0.004,0.0,0.0,0.0
26/04/2023,05:03:03,0.004,0.0,0.0,0.0
26/04/2023,05:04:03,0.004,0.0,0.0,0.0
26/04/2023,05:05:03,0.004,0.0,0.0,0.0
26/04/2023,05:06:03,0.005,0.0,0.0,0.0
26/04/2023,05:07:03,0.005,0.0,0.0,0.0
26/04/2023,05:08:04,0.004,0.0,0.0,0.0
26/04/2023,05:09:04,0.005,0.0,0.0,0.0
26/04/2023,05:10:03,0.006,0.0,0.0,0.0
26/04/2023,05:11:03,0.006,0.0,0.0,0.0
26/04/2023,05:12:03,0.006,0.0,0.0,0.0
26/04/2023,05:13:03,0.006,0.0,0.0,0.0
26/04/2023,05:14:03,0.007,0.0,0.0,0.0
26/04/2023,05:15:03,0.007,0.0,0.0,0.0
26/04/2023,05:16:03,0.007,0.0,0.0,0.0
26/04/2023,05:17:03,0.008,0.0,0.001,0.001
26/04/2023,05:18:03,0.009,0.0,0.001,0.0
26/04/2023,05:19:04,0.009,0.0,0.001,0.0
26/04/2023,05:20:03,0.009,0.0,0.001,0.0
26/04/2023,05:21:04,0.009,0.0,0.001,0.0
26/04/2023,05:22:04,0.010,0.0,0.001,0.0
26/04/2023,05:23:03,0.010,0.0,0.002,0.001
26/04/2023,05:24:03,0.011,0.0,0.002,0.0
26/04/2023,05:25:03,0.011,0.0,0.002,0.0
26/04/2023,05:26:03,0.012,0.0,0.002,0.0
26/04/2023,05:27:04,0.012,0.0,0.002,0.0
26/04/2023,05:28:04,0.012,0.0,0.002,0.0
26/04/2023,05:29:03,0.013,0.0,0.003,0.001
26/04/2023,05:30:04,0.013,0.0,0.003,0.0
26/04/2023,05:31:04,0.013,0.0,0.003,0.0
26/04/2023,05:32:03,0.014,0.0,0.003,0.0
26/04/2023,05:33:03,0.014,0.0,0.004,0.001
26/04/2023,05:34:03,0.015,0.0,0.004,0.0
26/04/2023,05:35:03,0.015,0.0,0.004,0.0
26/04/2023,05:36:03,0.016,0.0,0.004,0.0
26/04/2023,05:37:04,0.016,0.0,0.005,0.001
26/04/2023,05:38:03,0.017,0.0,0.005,0.0
26/04/2023,05:39:03,0.017,0.0,0.005,0.0
26/04/2023,05:40:05,0.018,0.0,0.005,0.0
26/04/2023,05:41:03,0.018,0.0,0.006,0.001
26/04/2023,05:42:04,0.018,0.0,0.006,0.0
26/04/2023,05:43:04,0.020,0.0,0.006,0.0
26/04/2023,05:44:04,0.020,0.0,0.007,0.001
26/04/2023,05:45:03,0.021,0.0,0.007,0.0
26/04/2023,05:46:03,0.022,0.0,0.007,0.0
26/04/2023,05:47:03,0.023,0.0,0.008,0.001
26/04/2023,05:48:03,0.023,0.0,0.008,0.0
26/04/2023,05:49:03,0.024,0.0,0.009,0.001
26/04/2023,05:50:04,0.024,0.0,0.009,0.0
26/04/2023,05:51:03,0.025,0.0,0.009,0.0
26/04/2023,05:52:03,0.025,0.0,0.01,0.001
26/04/2023,05:53:03,0.026,0.0,0.01,0.0
26/04/2023,05:54:04,0.027,0.0,0.011,0.001
26/04/2023,05:55:04,0.028,0.0,0.011,0.0
26/04/2023,05:56:03,0.028,0.0,0.012,0.001
26/04/2023,05:57:03,0.029,0.0,0.012,0.0
26/04/2023,05:58:03,0.029,0.0,0.013,0.001
26/04/2023,05:59:03,0.031,0.0,0.013,0.0
26/04/2023,06:00:03,0.031,0.0,0.014,0.001
26/04/2023,06:01:04,0.033,0.0,0.014,0.0
26/04/2023,06:02:04,0.034,0.0,0.015,0.001
26/04/2023,06:03:03,0.035,0.0,0.015,0.0
26/04/2023,06:04:03,0.036,0.0,0.016,0.001
26/04/2023,06:05:03,0.037,0.0,0.016,0.0
26/04/2023,06:06:03,0.038,0.0,0.017,0.001
26/04/2023,06:07:03,0.039,0.0,0.018,0.001
26/04/2023,06:08:03,0.041,0.0,0.018,0.0
26/04/2023,06:09:03,0.042,0.0,0.019,0.001
26/04/2023,06:10:04,0.043,0.0,0.02,0.001
26/04/2023,06:11:04,0.045,0.0,0.02,0.0
26/04/2023,06:12:04,0.046,0.0,0.021,0.001
26/04/2023,06:13:04,0.048,0.0,0.022,0.001
26/04/2023,06:14:03,0.048,0.0,0.023,0.001
26/04/2023,06:15:03,0.049,0.0,0.024,0.001
26/04/2023,06:16:03,0.050,0.0,0.024,0.0
26/04/2023,06:17:03,0.051,0.0,0.025,0.001
26/04/2023,06:18:04,0.051,0.0,0.026,0.001
26/04/2023,06:19:04,0.053,0.0,0.027,0.001
26/04/2023,06:20:03,0.054,0.0,0.028,0.001
26/04/2023,06:21:04,0.055,0.0,0.029,0.001
26/04/2023,06:22:03,0.056,0.0,0.03,0.001
26/04/2023,06:23:03,0.057,0.0,0.031,0.001
26/04/2023,06:24:03,0.059,0.0,0.032,0.001
26/04/2023,06:25:03,0.061,0.0,0.033,0.001
26/04/2023,06:26:04,0.061,0.0,0.034,0.001
26/04/2023,06:27:04,0.062,0.0,0.035,0.001
26/04/2023,06:28:03,0.064,0.0,0.036,0.001
26/04/2023,06:29:04,0.064,0.0,0.037,0.001
26/04/2023,06:30:03,0.066,0.0,0.038,0.001
26/04/2023,06:31:08,0.068,0.0,0.039,0.001
26/04/2023,06:32:04,0.069,0.0,0.04,0.001
26/04/2023,06:33:03,0.071,0.0,0.041,0.001
26/04/2023,06:34:08,0.072,0.0,0.043,0.002
26/04/2023,06:35:04,0.072,0.0,0.044,0.001
26/04/2023,06:36:03,0.074,0.0,0.045,0.001
26/04/2023,06:37:04,0.075,0.0,0.046,0.001
26/04/2023,06:38:03,0.076,0.0,0.047,0.001
26/04/2023,06:39:03,0.076,0.0,0.049,0.002
26/04/2023,06:40:03,0.077,0.0,0.05,0.001
26/04/2023,06:41:03,0.078,0.0,0.051,0.001
26/04/2023,06:42:03,0.080,0.0,0.053,0.002
26/04/2023,06:43:04,0.082,0.0,0.054,0.001
26/04/2023,06:44:03,0.084,0.0,0.055,0.001
26/04/2023,06:45:04,0.085,0.0,0.057,0.002
26/04/2023,06:46:04,0.087,0.0,0.058,0.001
26/04/2023,06:47:03,0.088,0.0,0.06,0.002
26/04/2023,06:48:03,0.090,0.0,0.061,0.001
26/04/2023,06:49:03,0.092,0.0,0.063,0.002
26/04/2023,06:50:04,0.096,0.0,0.064,0.001
26/04/2023,06:51:04,0.101,0.0,0.066,0.002
26/04/2023,06:52:03,0.106,0.0,0.067,0.001
26/04/2023,06:53:03,0.110,0.0,0.069,0.002
26/04/2023,06:54:03,0.113,0.0,0.071,0.002
26/04/2023,06:55:03,0.116,0.0,0.073,0.002
26/04/2023,06:56:03,0.119,0.0,0.075,0.002
26/04/2023,06:57:04,0.123,0.0,0.077,0.002
26/04/2023,06:58:04,0.126,0.0,0.079,0.002
26/04/2023,06:59:03,0.130,0.0,0.081,0.002
26/04/2023,07:00:03,0.132,0.0,0.083,0.002
26/04/2023,07:01:04,0.137,0.0,0.086,0.003
26/04/2023,07:02:04,0.140,0.0,0.088,0.002
26/04/2023,07:03:04,0.144,0.0,0.09,0.002
26/04/2023,07:04:03,0.147,0.0,0.093,0.003
26/04/2023,07:05:03,0.151,0.0,0.095,0.002
26/04/2023,07:06:03,0.154,0.0,0.098,0.003
26/04/2023,07:07:03,0.159,0.0,0.101,0.003
26/04/2023,07:08:03,0.162,0.0,0.103,0.002
26/04/2023,07:09:04,0.165,0.0,0.106,0.003
26/04/2023,07:10:04,0.168,0.0,0.109,0.003
26/04/2023,07:11:03,0.171,0.0,0.112,0.003
26/04/2023,07:12:03,0.174,0.0,0.114,0.002
26/04/2023,07:13:04,0.177,0.0,0.117,0.003
26/04/2023,07:14:04,0.179,0.0,0.12,0.003
26/04/2023,07:15:04,0.181,0.0,0.123,0.003
26/04/2023,07:16:03,0.185,0.0,0.126,0.003
26/04/2023,07:17:04,0.187,0.0,0.129,0.003
26/04/2023,07:18:05,0.190,0.0,0.133,0.004
26/04/2023,07:19:03,0.194,0.0,0.136,0.003
26/04/2023,07:20:04,0.198,0.0,0.139,0.003
26/04/2023,07:21:04,0.200,0.0,0.142,0.003
26/04/2023,07:22:03,0.203,0.0,0.146,0.004
26/04/2023,07:23:03,0.208,0.0,0.149,0.003
26/04/2023,07:24:04,0.212,0.0,0.153,0.004
26/04/2023,07:25:04,0.213,0.0,0.156,0.003
26/04/2023,07:26:04,0.216,0.0,0.16,0.004
26/04/2023,07:27:03,0.218,1.0,0.163,0.003
26/04/2023,07:28:03,0.223,1.0,0.167,0.004
26/04/2023,07:29:04,0.227,1.0,0.171,0.004
26/04/2023,07:30:04,0.228,1.0,0.175,0.004
26/04/2023,07:31:03,0.230,1.0,0.178,0.003
26/04/2023,07:32:04,0.236,1.0,0.182,0.004
26/04/2023,07:33:03,0.240,1.0,0.186,0.004
26/04/2023,07:34:03,0.245,1.0,0.19,0.004
26/04/2023,07:35:03,0.251,1.0,0.194,0.004
26/04/2023,07:36:04,0.258,1.0,0.199,0.005
26/04/2023,07:37:04,0.263,1.0,0.203,0.004
26/04/2023,07:38:04,0.268,1.0,0.208,0.005
26/04/2023,07:39:03,0.271,1.0,0.212,0.004
26/04/2023,07:40:04,0.274,1.0,0.217,0.005
26/04/2023,07:41:04,0.278,1.0,0.221,0.004
26/04/2023,07:42:04,0.281,1.0,0.226,0.005
26/04/2023,07:43:04,0.285,1.0,0.231,0.005
26/04/2023,07:44:04,0.289,1.0,0.235,0.004
26/04/2023,07:45:03,0.292,1.0,0.24,0.005
26/04/2023,07:46:03,0.298,1.0,0.245,0.005
26/04/2023,07:47:04,0.302,1.0,0.25,0.005
26/04/2023,07:48:04,0.306,1.0,0.255,0.005
26/04/2023,07:49:03,0.305,1.0,0.26,0.005
26/04/2023,07:50:03,0.306,1.0,0.265,0.005
26/04/2023,07:51:03,0.308,1.0,0.271,0.006
26/04/2023,07:52:03,0.310,1.0,0.276,0.005
26/04/2023,07:53:03,0.314,1.0,0.281,0.005
26/04/2023,07:54:04,0.319,1.0,0.286,0.005
26/04/2023,07:55:04,0.323,1.0,0.292,0.006
26/04/2023,07:56:04,0.328,1.0,0.297,0.005
26/04/2023,07:57:04,0.336,1.0,0.303,0.006
26/04/2023,07:58:03,0.346,1.0,0.308,0.005
26/04/2023,07:59:04,0.357,1.0,0.314,0.006
26/04/2023,08:00:04,0.365,1.0,0.32,0.006
26/04/2023,08:01:04,0.370,1.0,0.326,0.006
26/04/2023,08:02:03,0.372,1.0,0.332,0.006
26/04/2023,08:03:03,0.377,1.0,0.339,0.007
26/04/2023,08:04:03,0.381,1.0,0.345,0.006
26/04/2023,08:05:04,0.387,1.0,0.351,0.006
26/04/2023,08:06:04,0.392,1.0,0.358,0.007
26/04/2023,08:07:03,0.395,1.0,0.364,0.006
26/04/2023,08:08:03,0.399,1.0,0.371,0.007
26/04/2023,08:09:03,0.402,1.0,0.378,0.007
26/04/2023,08:10:04,0.408,1.0,0.384,0.006
26/04/2023,08:11:04,0.419,1.0,0.391,0.007
26/04/2023,08:12:04,0.429,1.0,0.398,0.007
26/04/2023,08:13:04,0.436,1.0,0.406,0.008
26/04/2023,08:14:04,0.442,1.0,0.413,0.007
26/04/2023,08:15:04,0.450,1.0,0.42,0.007
26/04/2023,08:16:04,0.456,1.0,0.428,0.008
26/04/2023,08:17:03,0.466,1.0,0.436,0.008
26/04/2023,08:18:03,0.473,1.0,0.443,0.007
26/04/2023,08:19:04,0.486,1.0,0.451,0.008
26/04/2023,08:20:03,0.489,1.0,0.46,0.009
26/04/2023,08:21:03,0.489,1.0,0.468,0.008
26/04/2023,08:22:04,0.493,1.0,0.476,0.008
26/04/2023,08:23:06,0.495,1.0,0.484,0.008
26/04/2023,08:24:04,0.501,1.0,0.492,0.008
26/04/2023,08:25:04,0.503,1.0,0.501,0.009
26/04/2023,08:26:03,0.499,1.0,0.509,0.008
26/04/2023,08:27:03,0.505,1.0,0.517,0.008
26/04/2023,08:28:04,0.507,1.0,0.526,0.009
26/04/2023,08:29:04,0.512,1.0,0.534,0.008
26/04/2023,08:30:04,0.523,1.0,0.543,0.009
26/04/2023,08:31:03,0.525,1.0,0.552,0.009
26/04/2023,08:32:04,0.567,1.0,0.561,0.009
26/04/2023,08:33:04,0.581,1.0,0.571,0.01
26/04/2023,08:34:04,0.576,1.0,0.58,0.009
26/04/2023,08:35:03,0.580,1.0,0.59,0.01
26/04/2023,08:36:04,0.572,1.0,0.599,0.009
26/04/2023,08:37:04,0.574,1.0,0.609,0.01
26/04/2023,08:38:03,0.546,1.0,0.618,0.009
26/04/2023,08:39:03,0.546,1.0,0.627,0.009
26/04/2023,08:40:04,0.555,1.0,0.636,0.009
26/04/2023,08:41:04,0.577,1.0,0.646,0.01
26/04/2023,08:42:04,0.580,1.0,0.655,0.009
26/04/2023,08:43:03,0.592,1.0,0.665,0.01
26/04/2023,08:44:05,0.600,1.0,0.676,0.011
26/04/2023,08:45:04,0.590,1.0,0.685,0.009
26/04/2023,08:46:03,0.584,1.0,0.695,0.01
26/04/2023,08:47:04,0.583,1.0,0.705,0.01
26/04/2023,08:48:04,0.563,1.0,0.714,0.009
26/04/2023,08:49:04,0.551,1.0,0.723,0.009
26/04/2023,08:50:04,0.544,1.0,0.732,0.009
26/04/2023,08:51:03,0.509,1.0,0.741,0.009
26/04/2023,08:52:03,0.510,1.0,0.75,0.009
26/04/2023,08:53:03,0.494,1.0,0.758,0.008
26/04/2023,08:54:04,0.474,1.0,0.766,0.008
26/04/2023,08:55:05,0.441,1.0,0.774,0.008
26/04/2023,08:56:04,0.406,1.0,0.781,0.007
26/04/2023,08:57:04,0.379,1.0,0.787,0.006
26/04/2023,08:58:03,0.359,1.0,0.794,0.007
26/04/2023,08:59:03,0.346,1.0,0.799,0.005
26/04/2023,09:00:03,0.337,1.0,0.805,0.006
26/04/2023,09:01:03,0.329,1.0,0.811,0.006
26/04/2023,09:02:04,0.318,1.0,0.816,0.005
26/04/2023,09:03:04,0.307,1.0,0.821,0.005
26/04/2023,09:04:04,0.298,1.0,0.826,0.005
26/04/2023,09:05:04,0.294,1.0,0.831,0.005
26/04/2023,09:06:04,0.292,1.0,0.836,0.005
26/04/2023,09:07:03,0.293,1.0,0.841,0.005
26/04/2023,09:08:04,0.291,1.0,0.846,0.005
26/04/2023,09:09:04,0.291,1.0,0.851,0.005
26/04/2023,09:10:04,0.294,1.0,0.855,0.004
26/04/2023,09:11:04,0.298,1.0,0.86,0.005
26/04/2023,09:12:04,0.305,1.0,0.865,0.005
26/04/2023,09:13:04,0.316,1.0,0.871,0.006
26/04/2023,09:14:03,0.325,1.0,0.876,0.005
26/04/2023,09:15:03,0.337,1.0,0.881,0.005
26/04/2023,09:16:03,0.346,1.0,0.887,0.006
26/04/2023,09:17:05,0.357,1.0,0.893,0.006
26/04/2023,09:18:03,0.370,1.0,0.899,0.006
26/04/2023,09:19:04,0.396,1.0,0.905,0.006
26/04/2023,09:20:04,0.432,1.0,0.912,0.007
26/04/2023,09:21:04,0.474,1.0,0.92,0.008
26/04/2023,09:22:04,0.515,1.0,0.928,0.008
26/04/2023,09:23:04,0.552,1.0,0.937,0.009
26/04/2023,09:24:04,0.590,1.0,0.947,0.01
26/04/2023,09:25:04,0.632,1.0,0.957,0.01
26/04/2023,09:26:04,0.669,2.0,0.968,0.011
26/04/2023,09:27:03,0.663,2.0,0.979,0.011
26/04/2023,09:28:04,0.608,1.0,0.99,0.011
26/04/2023,09:29:04,0.551,1.0,1.0,0.01
26/04/2023,09:30:03,0.519,1.0,1.008,0.008
26/04/2023,09:31:03,0.506,1.0,1.017,0.009
26/04/2023,09:32:04,0.507,1.0,1.025,0.008
26/04/2023,09:33:04,0.510,1.0,1.034,0.009
26/04/2023,09:34:04,0.517,1.0,1.042,0.008
26/04/2023,09:35:03,0.519,1.0,1.051,0.009
26/04/2023,09:36:03,0.513,1.0,1.06,0.009
26/04/2023,09:37:03,0.494,1.0,1.068,0.008
26/04/2023,09:38:04,0.460,1.0,1.076,0.008
26/04/2023,09:39:05,0.424,1.0,1.083,0.007
26/04/2023,09:40:04,0.398,1.0,1.09,0.007
26/04/2023,09:41:04,0.385,1.0,1.097,0.007
26/04/2023,09:42:03,0.385,1.0,1.103,0.006
26/04/2023,09:43:04,0.395,1.0,1.11,0.007
26/04/2023,09:44:04,0.411,1.0,1.116,0.006
26/04/2023,09:45:04,0.429,1.0,1.123,0.007
26/04/2023,09:46:03,0.450,1.0,1.131,0.008
26/04/2023,09:47:04,0.470,1.0,1.138,0.007
26/04/2023,09:48:04,0.484,1.0,1.146,0.008
26/04/2023,09:49:04,0.489,1.0,1.154,0.008
26/04/2023,09:50:03,0.491,1.0,1.163,0.009
26/04/2023,09:51:04,0.502,1.0,1.171,0.008
26/04/2023,09:52:03,0.526,1.0,1.179,0.008
26/04/2023,09:53:03,0.566,1.0,1.188,0.009
26/04/2023,09:54:03,0.619,1.0,1.198,0.01
26/04/2023,09:55:04,0.679,2.0,1.209,0.011
26/04/2023,09:56:04,0.743,2.0,1.221,0.012
26/04/2023,09:57:04,0.799,2.0,1.234,0.013
26/04/2023,09:58:03,0.851,2.0,1.248,0.014
26/04/2023,09:59:04,0.861,2.0,1.262,0.014
26/04/2023,10:00:04,0.861,2.0,1.277,0.015
26/04/2023,10:01:04,0.866,2.0,1.291,0.014
26/04/2023,10:02:04,0.900,2.0,1.306,0.015